Location: ??????????
(44.2167°N, 135.5333°E)
Time: 14:08:52
(UTC+00:00)

SJ 16-02 - Pass Details

Date: 15 June 2025
Orbit: 588 x 596 km, 75.0° (Epoch: 16 July)

Event Time Altitude Azimuth Distance (km) Brightness Sun altitude
Exits shadow 14:44:38 48° 104° (ESE) 779 1.7 -22.4°
Maximum altitude 14:44:38 48° 104° (ESE) 779 1.7 -22.4°
Drops below altitude 10° 14:48:48 10° 30° (NNE) 1,940 4.7 -22.4°
Sets 14:51:05 0° 25° (NNE) 2,847 5.8 -22.4°
